Flag for Canada Weather past 2 weeks in Hamilton, Ontario, Canada

Now
72 °F

Passing clouds.


Feels Like: 75 °F
Forecast: 65 / 81 °F
Wind: 18 mph from Southwest

Location: Hamilton Airport

Current Time: May 26, 2015 at 12:44:12 AM

Latest Report: May 26, 2015 at 12:00 AM


Visibility: 15 mi

Pressure: 29.99 "Hg

Humidity: 65%

Dew point: 59 °F

Location of HamiltonLocation

Historic Weather in Hamilton — Graph

°F

Hamilton temperature yesterday

Maximum temperature yesterday: 81 °F (at 2:00 PM)
Minimum temperature yesterday: 61 °F (at 6:00 AM)
Average temperature yesterday: 71 °F

Past Weeks' High & Low Weather Summary

 TemperatureHumidityPressure
High82 °F (May 18, 2:00 PM)100% (May 11, 1:00 AM)30.50 "Hg (May 11, 1:00 AM)
Low32 °F (May 23, 3:00 AM)19% (May 22, 7:00 PM)29.78 "Hg (May 12, 2:00 AM)
Average58 °F62%30.11 "Hg
* Reported May 10 11:00 PM — May 25 11:00 PM, Hamilton, Weather by CustomWeather, © 2015

Note: Actual official high and low records may vary slightly from our data, if they occured in-between our weather recording intervals... More about our weather records

Advertising

Hamilton weather history for previous 24 hours

 ConditionsComfort  
Time TempWeatherWind HumidityBarometerVisibility
11:00 PM
Mon, May 25
72 °FPassing clouds.17 mph65%29.98 "Hg15 mi
10:00 PM72 °FPartly cloudy.18 mph69%29.98 "Hg15 mi
9:00 PM73 °FPartly sunny.18 mph65%29.97 "Hg15 mi
8:00 PM77 °FBroken clouds.23 mph57%29.96 "Hg15 mi
7:00 PM77 °FBroken clouds.20 mph57%29.96 "Hg15 mi
6:00 PM79 °FBroken clouds.20 mph58%29.97 "Hg15 mi
5:00 PM79 °FMostly cloudy.29 mph51%29.98 "Hg15 mi
4:00 PM79 °FPartly sunny.26 mph54%29.99 "Hg15 mi
3:00 PM81 °FPartly sunny.29 mph51%30.00 "Hg15 mi
2:00 PM81 °FBroken clouds.26 mph51%30.00 "Hg15 mi
1:00 PM79 °FBroken clouds.21 mph54%30.01 "Hg15 mi
12:00 PM75 °FBroken clouds.15 mph57%30.04 "Hg15 mi
11:00 AM75 °FPartly sunny.17 mph50%30.05 "Hg15 mi
10:00 AM73 °FPartly sunny.18 mph50%30.07 "Hg15 mi
9:00 AM70 °FBroken clouds.9 mph57%30.08 "Hg15 mi
8:00 AM66 °FPartly sunny.5 mph56%30.09 "Hg15 mi
7:00 AM63 °FPartly sunny.5 mph68%30.10 "Hg15 mi
6:00 AM61 °FMostly cloudy.5 mph68%30.10 "Hg15 mi
5:00 AM63 °FMostly cloudy.6 mph64%30.09 "Hg15 mi
4:00 AM63 °FOvercast.6 mph59%30.10 "Hg15 mi
3:00 AM63 °FMostly cloudy.6 mph59%30.11 "Hg15 mi
2:00 AM64 °FMostly cloudy.5 mph52%30.13 "Hg15 mi
1:00 AM64 °FMostly cloudy.3 mph52%30.14 "Hg12 mi
12:00 AM66 °FOvercast.5 mph49%30.14 "Hg15 mi
Weather by CustomWeather, © 2015

See weather overviewHow to use our weather pages